Location: *
(41.7492°S, 135.4150°W)
Time: 23:03:20
(UTC+00:00)

ITAMSAT 1 - Pass Details

Date: 01 July 2022
Orbit: 784 x 795 km, 98.9° (Epoch: 09 August)

Event Time Altitude Azimuth Distance (km) Brightness Sun altitude
Rises 15:14:35 0° 39° (NE) 3,295 11.9 -13.5°
Reaches altitude 10° 15:17:03 10° 47° (NE) 2,373 11.3 -13.1°
Maximum altitude 15:21:49 36° 113° (ESE) 1,250 9.2 -12.3°
Drops below altitude 10° 15:26:36 10° 177° (S) 2,394 10.0 -11.4°
Sets 15:29:06 0° 185° (S) 3,329 10.6 -11.0°
